QPF
0.00 0.01 0.01 0.00 0.01 0.01 0.01 0.01 0.01 0.01 0.03 0.05 0.11 0.13 0.12 0.15 0.17 0.15 0.15 0.14 0.10 0.08 0.07 0.06 0.07 0.06 0.06 0.05 0.05 0.04 0.04 0.04 0.04 0.03 0.04 0.05 0.07 0.09
0.01 0.01 0.01 0.00 0.00 0.00 0.01 0.01 0.01 0.01 0.02 0.04 0.06 0.07 0.08 0.11 0.16 0.15 0.15 0.17 0.14 0.10 0.08 0.07 0.07 0.07 0.06 0.06 0.06 0.05 0.03 0.03 0.02 0.02 0.02 0.02 0.02 0.02
0.01 0.01 0.01 0.01 0.01 0.00 0.01 0.01 0.01 0.02 0.01 0.03 0.04 0.05 0.05 0.07 0.11 0.13 0.14 0.16 0.16 0.14 0.10 0.09 0.08 0.07 0.06 0.06 0.06 0.05 0.04 0.03 0.03 0.03 0.02 0.02 0.01 0.01
0.01 0.01 0.01 0.01 0.01 0.01 0.01 0.01 0.01 0.02 0.02 0.03 0.04 0.05 0.06 0.07 0.09 0.12 0.12 0.13 0.15 0.17 0.14 0.12 0.11 0.09 0.07 0.06 0.06 0.05 0.04 0.03 0.03 0.03 0.02 0.02 0.01 0.01
0.01 0.01 0.01 0.01 0.01 0.01 0.01 0.01 0.01 0.01 0.02 0.02 0.03 0.04 0.06 0.08 0.10 0.10 0.11 0.12 0.13 0.16 0.17 0.15 0.13 0.12 0.10 0.07 0.06 0.06 0.05 0.04 0.03 0.03 0.02 0.01 0.01 0.01
0.01 0.01 0.01 0.01 0.01 0.01 0.01 0.01 0.01 0.01 0.02 0.02 0.02 0.03 0.05 0.09 0.12 0.13 0.13 0.13 0.14 0.14 0.15 0.15 0.14 0.14 0.13 0.10 0.07 0.06 0.06 0.05 0.04 0.03 0.02 0.01 0.01 0.01
0.01 0.01 0.01 0.01 0.01 0.01 0.00 0.01 0.01 0.01 0.01 0.01 0.01 0.01 0.03 0.06 0.10 0.15 0.17 0.18 0.16 0.15 0.16 0.14 0.14 0.11 0.11 0.10 0.08 0.06 0.05 0.04 0.03 0.03 0.02 0.02 0.01 0.01
0.01 0.02 0.01 0.01 0.00 0.00 0.00 0.00 0.01 0.01 0.02 0.02 0.01 0.01 0.01 0.04 0.08 0.14 0.20 0.22 0.18 0.15 0.17 0.16 0.14 0.12 0.09 0.08 0.07 0.06 0.05 0.04 0.03 0.03 0.02 0.02 0.01 0.01
0.01 0.02 0.01 0.01 0.01 0.01 0.01 0.00 0.00 0.00 0.00 0.01 0.02 0.02 0.01 0.02 0.07 0.12 0.17 0.24 0.24 0.20 0.19 0.18 0.15 0.14 0.11 0.09 0.08 0.07 0.06 0.04 0.03 0.03 0.02 0.02 0.01 0.02
0.01 0.02 0.02 0.02 0.02 0.02 0.02 0.02 0.02 0.01 0.01 0.01 0.01 0.02 0.02 0.03 0.06 0.10 0.16 0.23 0.30 0.32 0.29 0.22 0.15 0.12 0.10 0.07 0.08 0.07 0.06 0.05 0.03 0.02 0.02 0.02 0.01 0.01
0.01 0.01 0.01 0.02 0.01 0.00 0.01 0.02 0.02 0.01 0.00 0.00 0.01 0.01 0.01 0.01 0.03 0.08 0.15 0.21 0.26 0.30 0.32 0.26 0.19 0.13 0.10 0.07 0.06 0.06 0.05 0.04 0.04 0.02 0.02 0.01 0.01 0.01
0.01 0.02 0.01 0.01 0.00 0.00 0.01 0.03 0.03 0.02 0.02 0.02 0.01 0.01 0.00 0.01 0.01 0.04 0.10 0.18 0.23 0.24 0.24 0.25 0.25 0.19 0.12 0.07 0.04 0.04 0.03 0.04 0.03 0.02 0.02 0.02 0.01 0.01
0.01 0.02 0.02 0.00 0.00 0.00 0.00 0.02 0.02 0.03 0.05 0.05 0.05 0.04 0.04 0.04 0.03 0.02 0.05 0.12 0.22 0.24 0.19 0.20 0.23 0.21 0.14 0.08 0.04 0.03 0.02 0.02 0.02 0.02 0.02 0.02 0.01 0.01
0.01 0.02 0.02 0.00 0.00 0.00 0.00 0.00 0.00 0.00 0.03 0.05 0.05 0.04 0.04 0.04 0.04 0.04 0.05 0.08 0.18 0.26 0.27 0.26 0.21 0.20 0.14 0.08 0.05 0.03 0.02 0.02 0.01 0.01 0.01 0.02 0.02 0.01
0.01 0.01 0.01 0.00 0.00 0.01 0.00 0.00 0.00 0.02 0.04 0.05 0.05 0.04 0.04 0.04 0.06 0.07 0.07 0.10 0.14 0.22 0.31 0.33 0.27 0.21 0.18 0.11 0.06 0.03 0.02 0.02 0.01 0.00 0.00 0.00 0.00 0.00
0.01 0.01 0.00 0.01 0.01 0.02 0.02 0.02 0.02 0.04 0.06 0.07 0.08 0.08 0.08 0.08 0.08 0.08 0.08 0.09 0.13 0.19 0.25 0.32 0.30 0.26 0.21 0.14 0.08 0.04 0.02 0.01 0.01 0.01 0.00 0.00 0.00 0.00
0.02 0.02 0.03 0.05 0.07 0.07 0.07 0.07 0.07 0.07 0.06 0.09 0.12 0.13 0.11 0.09 0.07 0.08 0.09 0.10 0.10 0.13 0.18 0.23 0.29 0.28 0.25 0.17 0.10 0.06 0.02 0.01 0.00 0.00 0.00 0.00 0.00 0.00
0.01 0.02 0.04 0.07 0.08 0.09 0.10 0.10 0.09 0.09 0.09 0.11 0.12 0.13 0.13 0.11 0.09 0.08 0.09 0.11 0.11 0.12 0.16 0.17 0.19 0.24 0.25 0.22 0.14 0.08 0.04 0.01 0.00 0.00 0.00 0.00 0.00 0.00
0.01 0.02 0.04 0.06 0.07 0.08 0.09 0.10 0.11 0.10 0.11 0.13 0.14 0.14 0.13 0.12 0.11 0.09 0.09 0.11 0.11 0.12 0.14 0.16 0.16 0.15 0.17 0.16 0.12 0.08 0.05 0.02 0.01 0.00 0.00 0.00 0.00 0.00
0.03 0.03 0.04 0.05 0.06 0.07 0.10 0.10 0.11 0.11 0.11 0.13 0.14 0.14 0.13 0.13 0.12 0.10 0.10 0.11 0.12 0.12 0.13 0.14 0.15 0.13 0.11 0.09 0.08 0.07 0.05 0.04 0.02 0.01 0.00 0.00 0.00 0.00
0.04 0.04 0.04 0.04 0.05 0.07 0.10 0.11 0.11 0.12 0.12 0.13 0.14 0.12 0.12 0.13 0.13 0.13 0.12 0.12 0.13 0.12 0.10 0.10 0.11 0.15 0.14 0.12 0.12 0.10 0.07 0.05 0.04 0.02 0.01 0.00 0.00 0.00
0.05 0.04 0.04 0.03 0.04 0.07 0.09 0.10 0.11 0.11 0.12 0.13 0.13 0.11 0.11 0.11 0.13 0.13 0.13 0.13 0.12 0.11 0.10 0.11 0.12 0.15 0.16 0.14 0.12 0.12 0.10 0.07 0.04 0.04 0.03 0.02 0.00 0.00
0.07 0.06 0.05 0.04 0.05 0.07 0.09 0.10 0.10 0.11 0.12 0.14 0.13 0.12 0.10 0.10 0.12 0.14 0.14 0.16 0.15 0.14 0.13 0.13 0.14 0.16 0.17 0.16 0.14 0.14 0.13 0.10 0.06 0.04 0.03 0.02 0.01 0.00
MSLP
1014.31 1014.21 1014.10 1013.96 1013.76 1013.50 1013.17 1012.79 1012.38 1011.98 1011.61 1011.30 1011.06 1010.92 1010.84 1010.83 1010.87 1010.95 1011.05 1011.17 1011.32 1011.50 1011.73 1012.01 1012.36 1012.77 1013.24 1013.75 1014.30 1014.88 1015.46 1016.05 1016.63 1017.21 1017.77 1018.32 1018.83 1019.32
1013.91 1013.82 1013.71 1013.56 1013.36 1013.11 1012.79 1012.43 1012.04 1011.66 1011.31 1011.02 1010.79 1010.64 1010.55 1010.51 1010.50 1010.53 1010.56 1010.62 1010.70 1010.82 1010.98 1011.22 1011.52 1011.90 1012.35 1012.86 1013.43 1014.02 1014.64 1015.26 1015.88 1016.49 1017.09 1017.65 1018.18 1018.67
1013.43 1013.33 1013.21 1013.06 1012.87 1012.63 1012.34 1012.02 1011.67 1011.33 1011.02 1010.75 1010.54 1010.38 1010.27 1010.20 1010.15 1010.12 1010.10 1010.09 1010.11 1010.18 1010.30 1010.49 1010.76 1011.11 1011.55 1012.06 1012.62 1013.24 1013.87 1014.53 1015.18 1015.81 1016.43 1017.02 1017.56 1018.06
1012.88 1012.77 1012.64 1012.50 1012.33 1012.12 1011.87 1011.59 1011.30 1011.02 1010.75 1010.51 1010.31 1010.15 1010.03 1009.92 1009.84 1009.76 1009.69 1009.63 1009.61 1009.63 1009.71 1009.86 1010.10 1010.43 1010.85 1011.34 1011.91 1012.52 1013.17 1013.83 1014.50 1015.15 1015.79 1016.39 1016.95 1017.46
1012.30 1012.16 1012.04 1011.90 1011.76 1011.59 1011.40 1011.18 1010.95 1010.72 1010.50 1010.30 1010.11 1009.95 1009.81 1009.69 1009.57 1009.45 1009.35 1009.26 1009.21 1009.20 1009.25 1009.38 1009.59 1009.89 1010.28 1010.75 1011.29 1011.88 1012.51 1013.17 1013.84 1014.51 1015.15 1015.77 1016.35 1016.87
1011.68 1011.54 1011.41 1011.30 1011.19 1011.07 1010.94 1010.79 1010.62 1010.44 1010.27 1010.09 1009.92 1009.76 1009.61 1009.47 1009.33 1009.20 1009.08 1008.99 1008.92 1008.91 1008.95 1009.06 1009.25 1009.51 1009.86 1010.29 1010.79 1011.34 1011.94 1012.58 1013.23 1013.89 1014.55 1015.18 1015.77 1016.32
1011.06 1010.91 1010.79 1010.71 1010.64 1010.57 1010.49 1010.40 1010.29 1010.16 1010.01 1009.86 1009.70 1009.54 1009.38 1009.23 1009.10 1008.97 1008.87 1008.79 1008.75 1008.75 1008.80 1008.91 1009.08 1009.32 1009.62 1010.00 1010.44 1010.93 1011.49 1012.08 1012.71 1013.36 1014.01 1014.65 1015.27 1015.85
1010.42 1010.28 1010.18 1010.13 1010.10 1010.08 1010.05 1010.01 1009.94 1009.84 1009.71 1009.57 1009.41 1009.25 1009.09 1008.95 1008.83 1008.74 1008.67 1008.64 1008.65 1008.69 1008.78 1008.90 1009.07 1009.29 1009.56 1009.88 1010.26 1010.70 1011.20 1011.74 1012.34 1012.96 1013.61 1014.26 1014.89 1015.49
1009.79 1009.66 1009.59 1009.57 1009.58 1009.60 1009.61 1009.60 1009.55 1009.47 1009.34 1009.20 1009.03 1008.87 1008.72 1008.60 1008.51 1008.46 1008.46 1008.50 1008.58 1008.70 1008.84 1009.01 1009.21 1009.42 1009.67 1009.96 1010.28 1010.66 1011.10 1011.60 1012.15 1012.75 1013.38 1014.03 1014.67 1015.29
1009.19 1009.07 1009.03 1009.03 1009.07 1009.12 1009.15 1009.15 1009.11 1009.03 1008.90 1008.74 1008.56 1008.39 1008.25 1008.15 1008.10 1008.12 1008.19 1008.33 1008.50 1008.71 1008.94 1009.18 1009.42 1009.66 1009.91 1010.18 1010.48 1010.82 1011.21 1011.67 1012.18 1012.75 1013.36 1013.99 1014.63 1015.25
1008.62 1008.53 1008.50 1008.53 1008.59 1008.64 1008.68 1008.68 1008.63 1008.53 1008.38 1008.20 1008.01 1007.83 1007.70 1007.62 1007.62 1007.70 1007.86 1008.08 1008.36 1008.68 1009.00 1009.33 1009.64 1009.94 1010.22 1010.50 1010.80 1011.12 1011.49 1011.91 1012.39 1012.93 1013.50 1014.11 1014.72 1015.32
1008.11 1008.04 1008.02 1008.06 1008.12 1008.17 1008.20 1008.18 1008.11 1007.99 1007.82 1007.62 1007.41 1007.23 1007.10 1007.04 1007.08 1007.21 1007.44 1007.75 1008.13 1008.54 1008.97 1009.39 1009.79 1010.16 1010.50 1010.82 1011.14 1011.47 1011.83 1012.24 1012.70 1013.20 1013.74 1014.31 1014.88 1015.44
1007.67 1007.61 1007.59 1007.61 1007.65 1007.69 1007.70 1007.66 1007.56 1007.42 1007.23 1007.01 1006.80 1006.61 1006.49 1006.45 1006.51 1006.68 1006.96 1007.33 1007.78 1008.28 1008.80 1009.31 1009.80 1010.25 1010.66 1011.05 1011.41 1011.78 1012.16 1012.56 1013.00 1013.48 1013.98 1014.50 1015.02 1015.54
1007.31 1007.22 1007.18 1007.17 1007.18 1007.18 1007.15 1007.09 1006.98 1006.82 1006.63 1006.41 1006.19 1006.01 1005.89 1005.86 1005.93 1006.12 1006.42 1006.83 1007.32 1007.88 1008.46 1009.04 1009.61 1010.15 1010.64 1011.10 1011.53 1011.95 1012.36 1012.78 1013.21 1013.66 1014.13 1014.60 1015.06 1015.52
1006.99 1006.86 1006.77 1006.71 1006.66 1006.61 1006.55 1006.47 1006.35 1006.19 1006.01 1005.81 1005.61 1005.45 1005.34 1005.31 1005.38 1005.57 1005.86 1006.27 1006.77 1007.35 1007.96 1008.60 1009.23 1009.84 1010.41 1010.95 1011.45 1011.92 1012.37 1012.81 1013.25 1013.68 1014.11 1014.54 1014.96 1015.37
1006.66 1006.47 1006.31 1006.17 1006.06 1005.96 1005.86 1005.76 1005.65 1005.52 1005.37 1005.21 1005.05 1004.91 1004.83 1004.80 1004.87 1005.03 1005.31 1005.69 1006.17 1006.73 1007.35 1008.01 1008.68 1009.34 1009.97 1010.58 1011.15 1011.68 1012.17 1012.64 1013.09 1013.51 1013.92 1014.31 1014.69 1015.06
1006.28 1006.01 1005.75 1005.53 1005.34 1005.19 1005.06 1004.96 1004.87 1004.77 1004.68 1004.58 1004.48 1004.40 1004.34 1004.34 1004.39 1004.54 1004.77 1005.11 1005.55 1006.07 1006.68 1007.33 1008.01 1008.71 1009.40 1010.06 1010.68 1011.26 1011.80 1012.30 1012.76 1013.18 1013.58 1013.95 1014.31 1014.66
1005.79 1005.42 1005.08 1004.77 1004.51 1004.31 1004.16 1004.07 1004.01 1003.97 1003.95 1003.93 1003.90 1003.88 1003.87 1003.89 1003.95 1004.07 1004.27 1004.56 1004.95 1005.44 1006.00 1006.64 1007.33 1008.04 1008.75 1009.46 1010.13 1010.75 1011.33 1011.86 1012.33 1012.76 1013.15 1013.52 1013.88 1014.23
1005.16 1004.72 1004.29 1003.91 1003.59 1003.35 1003.20 1003.11 1003.10 1003.12 1003.18 1003.24 1003.30 1003.35 1003.40 1003.45 1003.52 1003.64 1003.81 1004.06 1004.41 1004.85 1005.39 1006.00 1006.68 1007.40 1008.14 1008.87 1009.57 1010.23 1010.83 1011.38 1011.87 1012.31 1012.72 1013.09 1013.46 1013.84
1004.42 1003.91 1003.43 1002.99 1002.64 1002.38 1002.23 1002.17 1002.20 1002.28 1002.41 1002.55 1002.69 1002.81 1002.91 1003.00 1003.10 1003.21 1003.38 1003.61 1003.93 1004.35 1004.86 1005.46 1006.13 1006.85 1007.60 1008.35 1009.07 1009.75 1010.38 1010.94 1011.45 1011.90 1012.32 1012.71 1013.11 1013.52
1003.61 1003.07 1002.56 1002.11 1001.74 1001.49 1001.35 1001.31 1001.38 1001.51 1001.69 1001.90 1002.09 1002.26 1002.41 1002.54 1002.65 1002.79 1002.95 1003.18 1003.49 1003.90 1004.41 1005.00 1005.68 1006.40 1007.16 1007.92 1008.66 1009.35 1009.99 1010.56 1011.08 1011.54 1011.98 1012.39 1012.82 1013.27
1002.80 1002.28 1001.78 1001.34 1000.99 1000.76 1000.64 1000.63 1000.71 1000.88 1001.09 1001.31 1001.54 1001.74 1001.91 1002.06 1002.19 1002.34 1002.52 1002.75 1003.08 1003.49 1004.00 1004.61 1005.29 1006.03 1006.80 1007.57 1008.32 1009.02 1009.66 1010.24 1010.76 1011.23 1011.68 1012.11 1012.56 1013.05
1002.08 1001.61 1001.16 1000.77 1000.46 1000.26 1000.16 1000.17 1000.27 1000.43 1000.63 1000.85 1001.06 1001.26 1001.42 1001.57 1001.71 1001.86 1002.05 1002.31 1002.64 1003.08 1003.61 1004.24 1004.94 1005.69 1006.47 1007.25 1008.00 1008.70 1009.34 1009.92 1010.44 1010.92 1011.37 1011.82 1012.29 1012.80
Thickness
5630 5630 5629 5633 5634 5636 5639 5641 5642 5646 5655 5664 5666 5670 5673 5677 5682 5688 5694 5698 5702 5706 5708 5712 5714 5716 5718 5719 5719 5720 5720 5720 5720 5719 5718 5717 5716 5715
5619 5617 5617 5621 5624 5626 5629 5632 5635 5638 5644 5653 5657 5662 5665 5669 5675 5680 5687 5692 5696 5700 5704 5708 5711 5714 5716 5718 5719 5719 5719 5719 5719 5719 5718 5717 5716 5715
5610 5609 5608 5608 5611 5615 5619 5622 5626 5630 5633 5642 5649 5654 5656 5660 5667 5673 5679 5685 5690 5694 5699 5704 5708 5711 5714 5716 5717 5718 5719 5719 5718 5718 5718 5717 5716 5715
5601 5600 5599 5600 5601 5602 5606 5611 5616 5620 5624 5629 5637 5644 5648 5653 5659 5665 5672 5679 5684 5689 5693 5698 5703 5707 5710 5713 5715 5716 5717 5717 5717 5717 5716 5716 5716 5715
5593 5592 5591 5591 5591 5594 5596 5600 5606 5611 5616 5622 5628 5635 5641 5647 5651 5657 5664 5670 5676 5682 5687 5692 5697 5701 5705 5708 5711 5713 5714 5715 5715 5715 5715 5715 5715 5715
5586 5585 5584 5584 5584 5584 5587 5589 5593 5599 5606 5612 5620 5627 5633 5639 5643 5649 5655 5661 5668 5674 5680 5685 5690 5694 5699 5703 5706 5708 5710 5711 5712 5712 5713 5713 5713 5713
5580 5578 5578 5577 5576 5575 5578 5583 5586 5590 5597 5605 5611 5619 5626 5631 5637 5643 5647 5653 5659 5667 5672 5677 5683 5687 5691 5695 5699 5702 5704 5706 5708 5709 5710 5710 5711 5711
5573 5572 5571 5570 5569 5566 5566 5568 5570 5577 5586 5593 5602 5609 5616 5624 5630 5635 5639 5643 5650 5659 5663 5667 5675 5679 5685 5689 5694 5697 5699 5701 5703 5705 5706 5707 5707 5708
5567 5565 5566 5568 5564 5564 5563 5561 5563 5565 5569 5576 5588 5597 5607 5614 5620 5628 5632 5636 5643 5651 5654 5657 5663 5668 5674 5680 5685 5689 5693 5695 5697 5699 5701 5702 5703 5703
5561 5560 5558 5558 5557 5556 5557 5560 5562 5565 5567 5569 5577 5587 5594 5602 5610 5617 5624 5629 5635 5641 5646 5648 5652 5656 5661 5668 5674 5679 5684 5688 5691 5694 5695 5697 5698 5698
5557 5556 5553 5552 5549 5544 5544 5548 5553 5558 5561 5565 5570 5576 5581 5589 5596 5605 5615 5621 5626 5631 5637 5641 5643 5646 5650 5656 5661 5668 5673 5678 5683 5686 5688 5690 5691 5691
5554 5551 5547 5543 5539 5534 5535 5539 5543 5549 5553 5561 5563 5567 5573 5580 5586 5594 5606 5614 5619 5624 5628 5633 5634 5637 5639 5643 5650 5656 5662 5667 5672 5677 5680 5682 5684 5687
5548 5547 5545 5537 5530 5525 5523 5528 5534 5536 5543 5549 5557 5564 5570 5577 5585 5591 5599 5608 5614 5619 5624 5627 5629 5632 5636 5636 5639 5646 5653 5658 5662 5666 5670 5674 5678 5683
5540 5540 5537 5528 5522 5518 5518 5520 5520 5521 5531 5540 5549 5558 5566 5574 5581 5588 5594 5600 5608 5613 5617 5621 5626 5629 5631 5632 5633 5636 5642 5648 5654 5658 5661 5664 5669 5674
5535 5532 5526 5520 5516 5516 5514 5512 5512 5518 5526 5533 5542 5551 5559 5567 5574 5579 5585 5590 5597 5603 5609 5614 5620 5624 5628 5632 5632 5633 5634 5638 5646 5651 5654 5658 5663 5667
5529 5527 5521 5517 5514 5513 5514 5513 5514 5518 5523 5528 5535 5542 5550 5558 5564 5571 5577 5583 5587 5593 5599 5604 5611 5616 5621 5626 5629 5631 5634 5635 5639 5645 5649 5653 5657 5663
5522 5523 5524 5524 5522 5521 5519 5517 5516 5516 5518 5522 5527 5533 5540 5548 5556 5564 5570 5577 5582 5587 5590 5595 5601 5606 5612 5618 5622 5626 5629 5632 5634 5639 5643 5648 5653 5658
5512 5521 5524 5523 5522 5521 5520 5518 5517 5516 5517 5519 5523 5527 5533 5540 5548 5556 5563 5569 5576 5583 5586 5588 5592 5595 5599 5605 5613 5621 5624 5628 5630 5633 5640 5644 5648 5653
5513 5521 5524 5524 5523 5521 5520 5518 5518 5516 5516 5517 5520 5524 5529 5535 5541 5549 5557 5564 5571 5577 5582 5584 5587 5593 5598 5603 5604 5611 5619 5622 5624 5628 5635 5642 5647 5650
5522 5525 5525 5524 5523 5522 5520 5519 5518 5516 5515 5516 5518 5521 5526 5531 5537 5544 5551 5559 5566 5571 5575 5579 5585 5592 5599 5603 5603 5605 5611 5617 5621 5624 5630 5636 5640 5641
5529 5527 5527 5526 5525 5523 5520 5518 5517 5516 5516 5516 5518 5520 5524 5528 5534 5540 5547 5552 5560 5566 5571 5576 5582 5585 5590 5594 5597 5599 5603 5607 5615 5622 5626 5631 5633 5636
5529 5528 5527 5526 5525 5523 5520 5518 5518 5518 5517 5517 5518 5520 5523 5527 5532 5538 5544 5551 5558 5564 5569 5572 5573 5577 5583 5590 5596 5596 5597 5599 5604 5611 5617 5626 5634 5638
5529 5527 5526 5525 5525 5523 5521 5520 5520 5520 5519 5520 5520 5522 5524 5527 5532 5537 5543 5549 5554 5559 5563 5566 5569 5572 5579 5585 5589 5590 5592 5594 5598 5603 5610 5614 5623 5632